Flag Weather past 2 weeks in Fremont, California, U.S.A.

Now
58 °F

Clear.


Feels Like: 58 °F
Forecast: 55 / 73 °F
Wind: No wind

Location: Moffett Field

Current Time: Oct 30, 2014 at 7:55:27 AM

Latest Report: Oct 30, 2014 at 6:56 AM


Visibility: 10 mi

Pressure: 29.94 "Hg

Humidity: 75%

Dew point: 50 °F

Location of FremontLocation

Historic Weather in Fremont — Graph

°F

Fremont temperature yesterday

Maximum temperature yesterday: 79 °F (at 2:56 PM)
Minimum temperature yesterday: 52 °F (at 4:56 AM)
Average temperature yesterday: 64 °F

Past Weeks' High & Low Weather Summary

 TemperatureHumidityPressure
High79 °F (Oct 29, 2:56 PM)100% (Oct 19, 4:56 AM)30.19 "Hg (Oct 19, 4:56 AM)
Low49 °F (Oct 27, 5:56 AM)32% (Oct 29, 2:56 PM)29.86 "Hg (Oct 19, 4:56 PM)
Average63 °F71%30.02 "Hg
* Reported Oct 15 5:56 AM — Oct 30 5:56 AM, Fremont, Weather by CustomWeather, © 2014

Note: Actual official high and low records may vary slightly from our data, if they occured in-between our weather recording intervals... More about our weather records

Advertising

Fremont weather history for previous 24 hours

 ConditionsComfort  
Time TempWeatherWind HumidityBarometerVisibility
5:56 AM
Oct 30
57 °FClear.No wind72%29.93 "Hg10 mi
4:56 AM58 °FClear.No wind75%29.93 "Hg10 mi
3:56 AM57 °FClear.No wind78%29.94 "Hg10 mi
2:56 AM58 °FClear.No wind72%29.96 "Hg10 mi
1:56 AM59 °FClear.No wind69%29.96 "Hg10 mi
12:56 AM59 °FClear.No wind64%29.98 "Hg10 mi
11:56 PM
Oct 29
62 °FClear.No wind60%29.99 "Hg10 mi
10:56 PM62 °FClear.No wind60%30.00 "Hg10 mi
9:56 PM64 °FClear.No wind56%29.99 "Hg10 mi
8:56 PM67 °FClear.No wind53%29.99 "Hg10 mi
7:56 PM69 °FClear.No wind47%30.00 "Hg10 mi
6:56 PM72 °FSunny.No wind43%29.99 "Hg10 mi
5:56 PM74 °FSunny.No wind40%29.98 "Hg10 mi
4:56 PM75 °FSunny.7 mph43%30.00 "Hg10 mi
3:56 PM78 °FSunny.7 mph43%30.01 "Hg10 mi
2:56 PM79 °FSunny.3 mph32%30.01 "Hg10 mi
1:56 PM76 °FSunny.3 mph37%30.04 "Hg10 mi
12:56 PM72 °FSunny.3 mph44%30.08 "Hg10 mi
11:56 AM70 °FSunny.5 mph51%30.10 "Hg10 mi
10:56 AM67 °FSunny.No wind63%30.12 "Hg10 mi
9:56 AM62 °FSunny.No wind73%30.13 "Hg10 mi
8:56 AM59 °FSunny.No wind78%30.13 "Hg10 mi
7:56 AM54 °FClear.No wind90%30.12 "Hg10 mi
Weather by CustomWeather, © 2014

See weather overviewHow to use our weather pages